Weather History for Southport, NC

Change the Weather History Date:

Wednesday, October 30, 2013

  Actual Average (KILM) Record (KILM)
Temperature  
Mean Temperature 64 °F 61 °F  
Max Temperature 74 °F 72 °F 87 °F (1996)
Min Temperature 53 °F 50 °F 30 °F (1952)
Degree Days  
Heating Degree Days 2 5  
Month to date heating degree days 86  
Since 1 July heating degree days 91  
Cooling Degree Days 0 1  
Month to date cooling degree days 96  
Year to date cooling degree days 2013  
Growing Degree Days 14 (Base 50)    
Moisture  
Dew Point 56 °F    
Average Humidity 81    
Maximum Humidity 97    
Minimum Humidity 48    
Precipitation  
Precipitation 0.00 in 0.10 in 1.82 in (1921)
Month to date precipitation 3.80  
Year to date precipitation 50.61  
Sea Level Pressure  
Sea Level Pressure 30.27 in    
Wind  
Wind Speed 1 mph (NE)    
Max Wind Speed 8 mph    
Max Gust Speed -    
Visibility 8 miles    
Events      
T = Trace of Precipitation, MM = Missing Value Source: NWS Daily Summary

Daily Weather History Graph

Daily Weather History Graph

Search for Another Location

Airport:

Trip Planner

Search our weather history database for the weather conditions in past years. The results will help you decide how hot, cold, wet, or windy it might be!

Date:

Astronomy

Oct. 30, 2013 Rise Set
Actual Time 7:30 AM EDT 6:21 PM EDT
Civil Twilight 7:04 AM EDT 6:47 PM EDT
Nautical Twilight 6:34 AM EDT 7:16 PM EDT
Astronomical Twilight 6:05 AM EDT 7:45 PM EDT
Moon 3:27 AM EDT (10/30) 3:56 PM EDT (10/30)
Length of Visible Light 11h 42m
Length of Day
10h 51m
Waning Crescent, 17% of the Moon is Illuminated
Oct 30
Waning Crescent
Nov 3
New
Nov 10
First Quarter
Nov 17
Full
Nov 25
Last Quarter

Hourly Weather History & Observations

Time (EDT) Temp. Dew Point Humidity Pressure Visibility Wind Dir Wind Speed Gust Speed Precip Events Conditions
12:15 AM 55.0 °F 52.7 °F 92% 30.30 in 7.0 mi Calm Calm - N/A   Clear
12:35 AM 54.5 °F 52.7 °F 94% 30.30 in 5.0 mi Calm Calm - N/A   Clear
12:55 AM 54.7 °F 52.5 °F 92% 30.29 in 5.0 mi Calm Calm - N/A   Clear
1:15 AM 54.3 °F 51.8 °F 91% 30.28 in 7.0 mi Calm Calm - N/A   Clear
1:35 AM 54.0 °F 51.3 °F 91% 30.27 in 7.0 mi Calm Calm - N/A   Clear
1:55 AM 53.8 °F 51.8 °F 93% 30.28 in 5.0 mi Calm Calm - N/A   Clear
2:15 AM 53.6 °F 51.4 °F 92% 30.29 in 5.0 mi Calm Calm - N/A   Clear
2:35 AM 54.1 °F 52.3 °F 94% 30.29 in 7.0 mi Calm Calm - N/A   Clear
2:55 AM 55.0 °F 53.6 °F 95% 30.28 in 5.0 mi Calm Calm - N/A   Clear
3:15 AM 53.8 °F 52.0 °F 94% 30.27 in 7.0 mi Calm Calm - N/A   Clear
3:35 AM 54.1 °F 52.9 °F 95% 30.26 in 5.0 mi Calm Calm - N/A   Clear
3:55 AM 55.0 °F 53.8 °F 96% 30.27 in 7.0 mi NNE 3.5 mph - N/A   Clear
4:15 AM 55.4 °F 54.1 °F 96% 30.26 in 5.0 mi NNE 3.5 mph - N/A   Clear
4:35 AM 54.9 °F 53.4 °F 95% 30.26 in 7.0 mi NNE 3.5 mph - N/A   Clear
4:55 AM 55.6 °F 54.3 °F 96% 30.27 in 7.0 mi NNE 3.5 mph - N/A   Clear
5:15 AM 55.4 °F 54.0 °F 95% 30.27 in 7.0 mi NNE 3.5 mph - N/A   Clear
5:35 AM 54.7 °F 53.6 °F 96% 30.27 in 5.0 mi North 3.5 mph - N/A   Clear
5:55 AM 55.4 °F 54.1 °F 96% 30.27 in 7.0 mi Calm Calm - N/A   Clear
6:15 AM 54.7 °F 53.6 °F 96% 30.27 in 5.0 mi NNE 3.5 mph - N/A   Clear
6:35 AM 54.7 °F 53.6 °F 96% 30.28 in 5.0 mi NNE 3.5 mph - N/A   Clear
6:55 AM 55.0 °F 54.0 °F 96% 30.28 in 5.0 mi NNE 3.5 mph - N/A   Clear
7:15 AM 54.7 °F 53.6 °F 96% 30.28 in 4.0 mi North 3.5 mph - N/A   Clear
7:35 AM 54.3 °F 53.4 °F 97% 30.29 in 5.0 mi Calm Calm - N/A   Clear
7:55 AM 55.0 °F 54.0 °F 96% 30.30 in 4.0 mi Calm Calm - N/A   Clear
8:15 AM 55.4 °F 54.1 °F 96% 30.30 in 4.0 mi Calm Calm - N/A   Clear
8:35 AM 56.5 °F 55.4 °F 96% 30.30 in 5.0 mi NNE 3.5 mph - N/A   Clear
8:55 AM 58.3 °F 56.8 °F 95% 30.30 in 7.0 mi Calm Calm - N/A   Clear
9:15 AM 60.3 °F 58.1 °F 93% 30.31 in 7.0 mi Calm Calm - N/A   Clear
9:35 AM 61.9 °F 59.2 °F 91% 30.32 in 10.0 mi Calm Calm - N/A   Clear
9:55 AM 64.9 °F 61.0 °F 87% 30.32 in 10.0 mi Calm Calm - N/A   Clear
10:15 AM 67.1 °F 61.3 °F 82% 30.32 in 10.0 mi Calm Calm - N/A   Clear
10:35 AM 69.1 °F 61.0 °F 75% 30.32 in 10.0 mi Calm Calm - N/A   Clear
10:55 AM 70.3 °F 57.9 °F 65% 30.32 in 10.0 mi NW 5.8 mph - N/A   Clear
11:15 AM 71.4 °F 57.0 °F 60% 30.32 in 10.0 mi WNW 5.8 mph - N/A   Clear
11:35 AM 72.1 °F 55.0 °F 55% 30.32 in 10.0 mi NNW 5.8 mph - N/A   Clear
11:55 AM 72.5 °F 53.6 °F 51% 30.31 in 10.0 mi NW 3.5 mph - N/A   Clear
12:15 PM 73.4 °F 52.7 °F 48% 30.30 in 10.0 mi NNW 3.5 mph - N/A   Clear
12:35 PM 72.9 °F 52.9 °F 49% 30.29 in 10.0 mi NNW 3.5 mph - N/A   Clear
12:55 PM 73.9 °F 53.1 °F 48% 30.28 in 10.0 mi Calm Calm - N/A   Clear
1:15 PM 74.1 °F 57.6 °F 56% 30.27 in 10.0 mi SE 5.8 mph - N/A   Scattered Clouds
1:35 PM 74.3 °F 56.8 °F 54% 30.26 in 10.0 mi South 5.8 mph - N/A   Scattered Clouds
1:55 PM 74.5 °F 57.6 °F 55% 30.25 in 10.0 mi SSE 4.6 mph - N/A   Clear
2:15 PM 73.4 °F 58.6 °F 60% 30.24 in 10.0 mi SSE 4.6 mph - N/A   Clear
2:35 PM 73.8 °F 59.0 °F 60% 30.24 in 10.0 mi SSE 5.8 mph - N/A   Clear
2:55 PM 73.2 °F 58.6 °F 60% 30.23 in 10.0 mi South 6.9 mph - N/A   Clear
3:15 PM 72.5 °F 59.0 °F 62% 30.23 in 10.0 mi SSE 4.6 mph - N/A   Clear
3:35 PM 72.5 °F 58.3 °F 61% 30.22 in 10.0 mi South 4.6 mph - N/A   Clear
3:55 PM 72.0 °F 58.6 °F 63% 30.22 in 10.0 mi South 5.8 mph - N/A   Clear
4:15 PM 70.7 °F 57.9 °F 64% 30.21 in 10.0 mi SSE 8.1 mph - N/A   Clear
4:35 PM 70.2 °F 57.7 °F 65% 30.21 in 10.0 mi South 4.6 mph - N/A   Clear
4:55 PM 70.3 °F 58.1 °F 65% 30.21 in 10.0 mi South 4.6 mph - N/A   Clear
5:15 PM 69.8 °F 58.5 °F 67% 30.21 in 10.0 mi SSE 3.5 mph - N/A   Clear
5:35 PM 68.9 °F 58.6 °F 70% 30.21 in 10.0 mi Calm Calm - N/A   Clear
5:55 PM 67.8 °F 59.0 °F 73% 30.21 in 10.0 mi Calm Calm - N/A   Clear
6:15 PM 66.9 °F 59.2 °F 76% 30.21 in 10.0 mi Calm Calm - N/A   Clear
6:35 PM 66.2 °F 59.0 °F 78% 30.22 in 10.0 mi Calm Calm - N/A   Clear
6:55 PM 65.3 °F 59.2 °F 81% 30.23 in 10.0 mi Calm Calm - N/A   Clear
7:15 PM 64.0 °F 58.3 °F 82% 30.23 in 10.0 mi Calm Calm - N/A   Clear
8:55 PM 60.8 °F 57.2 °F 88% 30.25 in 10.0 mi Calm Calm - N/A   Clear
9:15 PM 60.1 °F 57.0 °F 90% 30.25 in 10.0 mi Calm Calm - N/A   Clear
9:35 PM 59.2 °F 56.7 °F 91% 30.24 in 10.0 mi Calm Calm - N/A   Clear
9:55 PM 59.4 °F 56.7 °F 91% 30.24 in 10.0 mi Calm Calm - N/A   Clear
10:15 PM 59.5 °F 57.0 °F 91% 30.23 in 10.0 mi Calm Calm - N/A   Clear
10:35 PM 60.3 °F 57.9 °F 92% 30.23 in 10.0 mi Calm Calm - N/A   Clear
10:55 PM 61.7 °F 58.1 °F 88% 30.24 in 10.0 mi Calm Calm - N/A   Clear
11:15 PM 60.1 °F 57.4 °F 91% 30.24 in 10.0 mi Calm Calm - N/A   Clear
11:35 PM 59.4 °F 57.2 °F 93% 30.24 in 10.0 mi Calm Calm - N/A   Clear
11:55 PM 58.5 °F 56.5 °F 93% 30.24 in 10.0 mi Calm Calm - N/A   Clear